This demonstration page uses our WeatherBlox Daily Observations layout. Learn more.

Left ArrowRight Arrow

Hourly Observations for October 3, 2015

Temp ( °F °C ) Dew Point ( °F °C ) Humidity (%) Winds ( mph kmh ) Pressure ( in mb ) Visibility ( mi km ) Precip ( " mm )
3:53 am 03:53 Cloudy 49 9.4 40 4.4 71 71 NE 12 19 30.05 1018 10 16 0.00 0.00
5:38 am 05:38 Cloudy 49 9.4 40 4.4 71 71 NE 9 15 30.06 1018 10 16 0.00 0.00
5:53 am 05:53 Cloudy 49 9.4 40 4.4 71 71 NE 14 22 30.03 1017 10 16 0.00 0.00
6:53 am 06:53 Cloudy with Light Rain 47 8.3 42 5.6 83 83 ENE 13 20 30.05 1018 8 13 0.00 0.03
7:44 am 07:44 Cloudy with Light Rain 47 8.3 43 6.1 86 86 NE 10 17 30.09 1019 10 16 0.00 0.03
7:53 am 07:53 Cloudy with Light Rain 47 8.3 44 6.7 90 90 ENE 10 17 30.05 1018 10 16 0.00 0.03
8:53 am 08:53 Cloudy 47 8.3 44 6.7 90 90 NE 12 19 30.05 1018 10 16 0.00 0.03
9:53 am 09:53 Cloudy 47 8.3 44 6.7 90 90 NE 13 20 30.04 1017 10 16 0.02 0.51
10:53 am 10:53 Cloudy 48 8.9 45 7.2 89 89 ENE 9 15 30.05 1018 10 16 0.00 0.00
11:53 am 11:53 Cloudy 49 9.4 45 7.2 86 86 ENE 8 13 30.06 1018 10 16 0.00 0.00
12:46 pm 12:46 Cloudy 50 10 45 7.2 83 83 ENE 12 19 30.06 1018 10 16 0.00 0.00
12:53 pm 12:53 Cloudy 50 10 45 7.2 83 83 ENE 12 19 30.03 1017 10 16 0.00 0.00
1:53 pm 13:53 Cloudy with Light Rain 50 10 46 7.8 86 86 ENE 13 20 30.02 1017 3 4 0.01 0.25
2:02 pm 14:02 Cloudy with Light Rain 49 9.4 46 7.8 90 90 NE 10 17 30.03 1017 2 3 0.01 0.25
2:13 pm 14:13 Cloudy with Light Rain 50 10 46 7.8 86 86 ENE 7 11 30.06 1018 5 8 0.01 0.25
2:37 pm 14:37 Cloudy with Light Rain 49 9.4 47 8.3 93 93 NE 8 13 30.06 1018 2 3 0.02 0.51
2:53 pm 14:53 Cloudy with Light Rain 49 9.4 47 8.3 93 93 NE 10 17 30.01 1016 3 5 0.03 0.76
3:07 pm 15:07 Cloudy with Light Rain 50 10 47 8.3 89 89 ENE 12 19 30.03 1017 4 6 0.00 0.03
3:34 pm 15:34 Cloudy 50 10 48 8.9 93 93 ENE 7 11 30.03 1017 10 16 0.00 0.03
3:53 pm 15:53 Cloudy 50 10 47 8.3 89 89 NE 7 11 30.02 1017 10 16 0.00 0.03
4:53 pm 16:53 Cloudy 51 10.6 47 8.3 86 86 NE 10 17 30.03 1017 10 16 0.00 0.00
5:53 pm 17:53 Cloudy 50 10 48 8.9 93 93 ENE 12 19 30.03 1017 8 13 0.00 0.03
6:53 pm 18:53 Cloudy 51 10.6 48 8.9 89 89 NE 10 17 30.04 1017 10 16 0.00 0.00
7:15 pm 19:15 Cloudy 51 10.6 48 8.9 89 89 ENE 9 15 30.06 1018 10 16 0.00 0.00
7:53 pm 19:53 Cloudy with Light Rain 51 10.6 48 8.9 89 89 ENE 9 15 30.04 1017 10 16 0.00 0.03
8:11 pm 20:11 Cloudy with Light Rain 51 10.6 48 8.9 89 89 NE 10 17 30.06 1018 10 16 0.00 0.03
8:53 pm 20:53 Cloudy with Light Rain 51 10.6 49 9.4 92 92 NE 9 15 30.04 1017 10 16 0.00 0.03
9:53 pm 21:53 Cloudy with Light Rain 51 10.6 49 9.4 92 92 ENE 8 13 30.05 1018 10 16 0.01 0.25
10:53 pm 22:53 Cloudy 52 11.1 50 10 93 93 ENE 6 9 30.05 1018 10 16 0.01 0.25
11:53 pm 23:53 Cloudy 52 11.1 50 10 93 93 NNE 6 9 30.05 1018 10 16 0.00 0.00

Powered by AerisWeather